PST,Max TemperatureF,Mean TemperatureF,Min TemperatureF,Max Dew PointF,MeanDew PointF,Min DewpointF,Max Humidity, Mean Humidity, Min Humidity, Max Sea Level PressureIn, Mean Sea Level PressureIn, Min Sea Level PressureIn, Max VisibilityMiles, Mean VisibilityMiles, Min VisibilityMiles, Max Wind SpeedMPH, Mean Wind SpeedMPH, Max Gust SpeedMPH,PrecipitationIn, CloudCover, Events, WindDirDegrees
2011-12-1,41,34,27,29,21,13,89,65,36,30.77,30.59,30.32,10,10,10,13,4,24,0.00,2,,202
2011-12-2,28,26,23,28,25,21,100,95,86,30.47,30.33,30.23,10,4,0,13,8,25,0.03,6,Fog-Snow,245
2011-12-3,28,26,23,27,24,19,100,94,81,30.47,30.38,30.30,10,4,0,10,7,18,0.00,3,Fog,236
2011-12-4,37,30,24,28,23,19,100,87,67,30.57,30.47,30.33,10,5,0,9,5,17,0.00,0,Fog,224
2011-12-5,37,32,26,24,21,19,75,66,53,30.51,30.44,30.37,10,10,10,7,4,,0.00,0,,226
2011-12-6,37,32,28,32,28,22,100,87,69,30.40,30.35,30.30,10,7,0,9,7,,0.00,4,Fog,234
2011-12-7,30,28,25,30,28,24,100,96,86,30.40,30.34,30.27,10,2,0,8,6,,0.00,4,Fog,236
2011-12-8,39,32,24,29,23,9,96,80,29,30.41,30.39,30.33,10,10,8,8,3,,0.00,0,,108
2011-12-9,30,26,21,23,21,15,96,87,54,30.43,30.37,30.27,10,9,5,8,7,20,0.00,0,,61
2011-12-10,28,24,21,28,24,18,100,93,66,30.21,30.06,29.95,10,4,0,9,6,16,0.04,4,Fog-Snow,158
2011-12-11,27,24,21,27,24,21,100,94,86,30.15,30.02,29.94,4,1,0,7,5,,0.00,8,Fog,237
2011-12-12,24,20,17,21,18,13,100,89,75,30.23,30.13,30.05,10,6,1,7,4,,0.00,5,,38
2011-12-13,28,21,14,18,14,12,93,83,58,30.12,30.08,29.96,10,10,9,7,5,,0.00,5,,123
2011-12-14,30,24,17,18,16,11,96,87,45,30.19,30.06,29.98,10,4,0,8,6,,0.01,8,Fog-Snow,86
2011-12-15,37,28,19,32,27,16,100,93,75,30.45,30.19,30.01,7,2,0,6,3,,0.09,8,Fog-Snow,94
2011-12-16,42,37,32,34,28,6,100,79,23,30.47,30.42,30.38,10,5,0,5,3,,0.00,5,Fog,239
2011-12-17,45,40,36,30,18,8,62,41,23,30.38,30.23,30.05,10,10,10,9,2,,0.00,1,,92
2011-12-18,41,36,30,34,32,26,100,94,57,30.40,30.13,29.99,10,2,0,13,8,23,0.04,8,Fog-Snow,271
2011-12-19,30,29,28,29,28,24,100,97,85,30.43,30.35,30.27,10,2,0,9,7,18,0.00,5,Fog,239
2011-12-20,33,30,26,33,29,23,100,95,80,30.34,30.20,30.12,10,4,0,13,8,32,0.09,8,Fog-Snow,268
2011-12-21,27,24,19,27,25,19,100,97,85,30.53,30.34,30.19,10,4,0,8,5,,0.16,4,Fog-Snow,260
2011-12-22,24,22,18,19,17,15,92,85,71,30.53,30.48,30.44,10,10,10,8,6,,0.00,0,,95
2011-12-23,35,26,18,34,29,9,100,91,41,30.57,30.45,30.33,10,5,0,13,7,23,0.07,7,Fog-Rain-Snow,284
2011-12-24,42,35,28,39,35,28,100,95,81,30.52,30.43,30.30,10,4,0,8,2,,0.03,6,Fog-Rain,88
2011-12-25,30,27,24,30,25,21,100,95,86,30.30,30.11,29.97,8,3,0,10,6,24,0.07,6,Fog-Snow,68
2011-12-26,,,,,,,,,,,,,,,,,,,,,,
2011-12-27,,,,,,,,,,,,,,,,,,,,,,
2011-12-28,,,,,,,,,,,,,,,,,,,,,,
2011-12-29,,,,,,,,,,,,,,,,,,,,,,
2011-12-30,,,,,,,,,,,,,,,,,,,,,,
2011-12-31,,,,,,,,,,,,,,,,,,,,,,